Home > Time Zones > World Clock > Weather > Cuba > Havana > Past weeks

Flag for Cuba Weather past 2 weeks in Havana, Cuba

Now
90 °F

Scattered clouds.


Feels Like: 95 °F
Forecast: 78 / 90 °F
Wind: 6 mph from Southeast

Location: Aeropuerto Jose Marti - Rancho-Boyeros - Habana

Current Time: Aug 4, 2015 at 1:56:53 PM

Latest Report: Aug 4, 2015 at 12:55 PM


Visibility: N/A

Pressure: 30.07 "Hg

Humidity: 52%

Dew point: 70 °F

Location of HavanaLocation

Historic Weather in Havana — Graph

°F

Havana temperature yesterday

Maximum temperature yesterday: 90 °F (at 12:55 PM)
Minimum temperature yesterday: 70 °F (at 4:55 AM)
Average temperature yesterday: 77 °F

Past Weeks' High & Low Weather Summary

 TemperatureHumidityPressure
High93 °F (Jul 23, 3:55 PM)94% (Jul 21, 4:55 AM)30.12 "Hg (Jul 21, 4:55 AM)
Low70 °F (Jul 27, 5:55 AM)38% (Jul 21, 11:55 AM)29.95 "Hg (Jul 26, 2:55 AM)
Average81 °F70%30.02 "Hg
* Reported Jul 20 12:55 PM — Aug 4 12:55 PM, Havana, Weather by CustomWeather, © 2015

Note: Actual official high and low records may vary slightly from our data, if they occured in-between our weather recording intervals... More about our weather records

Advertising

Havana weather history for previous 24 hours

 ConditionsComfort  
Time TempWeatherWind HumidityBarometerVisibility
12:55 PM
Tue, Aug 4
90 °FScattered clouds.6 mph52%30.07 "HgN/A
11:55 AM88 °FScattered clouds.8 mph55%30.07 "HgN/A
10:55 AM86 °FPassing clouds.7 mph55%30.07 "HgN/A
9:55 AM84 °FPassing clouds.7 mph66%30.04 "HgN/A
8:55 AM81 °FPassing clouds.3 mph79%30.04 "Hg6 mi
7:55 AM73 °FPassing clouds.2 mph89%30.04 "Hg6 mi
6:55 AM70 °FClear.1 mph88%30.01 "Hg6 mi
5:55 AM70 °FClear.3 mph88%30.01 "Hg6 mi
3:55 AM70 °FClear.2 mph88%30.01 "Hg6 mi
2:55 AM72 °FClear.No wind83%30.01 "Hg6 mi
1:55 AM72 °FClear.2 mph83%30.04 "Hg6 mi
12:55 AM72 °FClear.1 mph88%30.04 "Hg6 mi
11:55 PM
Mon, Aug 3
73 °FPassing clouds.3 mph83%30.04 "Hg6 mi
10:55 PM73 °FPassing clouds.No wind83%30.04 "Hg6 mi
9:55 PM73 °FPassing clouds.3 mph83%30.01 "Hg6 mi
8:55 PM75 °FPassing clouds.5 mph78%30.01 "Hg6 mi
7:55 PM77 °FPassing clouds.5 mph79%30.01 "Hg6 mi
6:55 PM77 °FPassing clouds.5 mph69%30.01 "Hg6 mi
5:55 PM77 °FScattered clouds.9 mph74%30.01 "Hg6 mi
4:55 PM81 °FScattered clouds.3 mph70%29.98 "Hg6 mi
3:55 PM75 °FLight rain. Partly sunny.9 mph89%30.01 "Hg6 mi
3:02 PM79 °FSleet. Partly sunny.10 mph70%30.01 "Hg5 mi
1:55 PM88 °FScattered clouds.8 mph55%30.01 "Hg6 mi
Weather by CustomWeather, © 2015

See weather overviewHow to use our weather pages